When you browse on this site, cookies collect data to enhance your experience and personalize the content and advertising you see.
Visit our Privacy Policy to learn more. By continuing to use the site, you agree to this use of cookies and data.
EN

Hourly Weather Kariba

Today, 14 July, Tuesday

Time Temperature Precipitation Wind Pressure Humidity
00:00 +32°C° 0 mm 4 mps 718 mmHg 10%
01:00 +31°C° 0 mm 3 mps 717 mmHg 11%
02:00 +30°C° 0 mm 3 mps 717 mmHg 12%
03:00 +29°C° 0 mm 3 mps 717 mmHg 12%
04:00 +29°C° 0 mm 3 mps 717 mmHg 13%
05:00 +28°C° 0 mm 2 mps 718 mmHg 13%
06:00 +30°C° 0 mm 3 mps 718 mmHg 12%
07:00 +33°C° 0 mm 3 mps 719 mmHg 11%
08:00 +34°C° 0 mm 3 mps 719 mmHg 10%
09:00 +36°C° 0 mm 3 mps 719 mmHg 9%
10:00 +38°C° 0 mm 3 mps 720 mmHg 8%
11:00 +40°C° 0 mm 3 mps 720 mmHg 8%
12:00 +41°C° 0 mm 2 mps 719 mmHg 7%
13:00 +42°C° 0 mm 1 mps 719 mmHg 7%
14:00 +42°C° 0 mm 1 mps 718 mmHg 6%
15:00 +42°C° 0 mm 1 mps 718 mmHg 6%
16:00 +43°C° 0 mm 1 mps 717 mmHg 6%
17:00 +43°C° 0 mm 1 mps 717 mmHg 6%
18:00 +40°C° 0 mm 2 mps 717 mmHg 7%
19:00 +38°C° 0 mm 2 mps 717 mmHg 8%
20:00 +35°C° 0 mm 2 mps 717 mmHg 10%
21:00 +35°C° 0 mm 2 mps 718 mmHg 10%
22:00 +34°C° 0 mm 2 mps 718 mmHg 11%
23:00 +34°C° 0 mm 2 mps 718 mmHg 12%

Tomorrow, 15 July, Wednesday

Time Temperature Precipitation Wind Pressure Humidity
00:00 +32°C° 0 mm 2 mps 718 mmHg 12%
01:00 +31°C° 0 mm 2 mps 718 mmHg 13%
02:00 +31°C° 0 mm 2 mps 718 mmHg 13%
03:00 +30°C° 0 mm 2 mps 718 mmHg 14%
04:00 +29°C° 0 mm 1 mps 718 mmHg 15%
05:00 +28°C° 0 mm 1 mps 718 mmHg 15%
06:00 +30°C° 0 mm 1 mps 719 mmHg 14%
07:00 +33°C° 0 mm 1 mps 720 mmHg 12%
08:00 +35°C° 0 mm 1 mps 721 mmHg 11%
09:00 +38°C° 0 mm 2 mps 721 mmHg 11%
10:00 +40°C° 0 mm 2 mps 721 mmHg 11%
11:00 +42°C° 0 mm 3 mps 721 mmHg 12%
12:00 +42°C° 0 mm 2 mps 720 mmHg 10%
13:00 +43°C° 0 mm 1 mps 720 mmHg 9%
14:00 +44°C° 0 mm 1 mps 719 mmHg 8%
15:00 +44°C° 0 mm 1 mps 719 mmHg 7%
16:00 +44°C° 0 mm 1 mps 719 mmHg 7%
17:00 +45°C° 0 mm 2 mps 718 mmHg 7%
18:00 +41°C° 0 mm 2 mps 718 mmHg 8%
19:00 +38°C° 0 mm 2 mps 718 mmHg 9%
20:00 +34°C° 0 mm 1 mps 718 mmHg 10%
21:00 +35°C° 0 mm 2 mps 719 mmHg 11%
22:00 +34°C° 0 mm 2 mps 719 mmHg 11%
23:00 +34°C° 0 mm 2 mps 719 mmHg 11%

Day after tomorrow, 16 July, Thursday

Time Temperature Precipitation Wind Pressure Humidity
00:00 +32°C° 0 mm 1 mps 719 mmHg 12%
01:00 +31°C° 0 mm 1 mps 718 mmHg 12%
02:00 +28°C° 0 mm 0 mps 718 mmHg 12%
03:00 +30°C° 0 mm 1 mps 718 mmHg 12%
04:00 +30°C° 0 mm 1 mps 718 mmHg 12%
05:00 +31°C° 0 mm 2 mps 718 mmHg 12%
06:00 +33°C° 0 mm 3 mps 719 mmHg 15%
07:00 +35°C° 0 mm 3 mps 719 mmHg 18%
08:00 +36°C° 0 mm 4 mps 720 mmHg 21%
09:00 +38°C° 0 mm 4 mps 720 mmHg 20%
10:00 +41°C° 0 mm 5 mps 720 mmHg 18%
11:00 +42°C° 0 mm 5 mps 720 mmHg 16%
12:00 +43°C° 0 mm 4 mps 720 mmHg 15%
13:00 +44°C° 0 mm 3 mps 719 mmHg 14%
14:00 +45°C° 0 mm 2 mps 719 mmHg 12%
15:00 +45°C° 0 mm 2 mps 718 mmHg 12%
16:00 +45°C° 0 mm 2 mps 718 mmHg 12%
17:00 +45°C° 0 mm 2 mps 718 mmHg 11%
18:00 +43°C° 0 mm 3 mps 718 mmHg 15%
19:00 +39°C° 0 mm 3 mps 718 mmHg 20%
20:00 +37°C° 0 mm 4 mps 718 mmHg 24%
21:00 +37°C° 0 mm 5 mps 718 mmHg 27%
22:00 +36°C° 0 mm 6 mps 718 mmHg 30%
23:00 +36°C° 0 mm 7 mps 719 mmHg 34%

17 July, Friday

Time Temperature Precipitation Wind Pressure Humidity
00:00 +35°C° 0 mm 7 mps 718 mmHg 38%
01:00 +34°C° 0 mm 7 mps 718 mmHg 42%
02:00 +34°C° 0 mm 7 mps 718 mmHg 46%
03:00 +33°C° 0 mm 7 mps 718 mmHg 47%
04:00 +33°C° 0 mm 6 mps 718 mmHg 49%
05:00 +32°C° 0 mm 6 mps 718 mmHg 50%
06:00 +33°C° 0 mm 6 mps 718 mmHg 48%
07:00 +34°C° 0 mm 6 mps 719 mmHg 45%
08:00 +35°C° 0 mm 6 mps 720 mmHg 43%
09:00 +38°C° 0 mm 6 mps 720 mmHg 37%
10:00 +39°C° 0 mm 6 mps 720 mmHg 31%
11:00 +41°C° 0 mm 5 mps 720 mmHg 25%
12:00 +42°C° 0 mm 5 mps 719 mmHg 22%
13:00 +43°C° 0 mm 4 mps 719 mmHg 19%
14:00 +44°C° 0 mm 4 mps 718 mmHg 16%
15:00 +44°C° 0 mm 4 mps 718 mmHg 15%
16:00 +44°C° 0 mm 3 mps 717 mmHg 15%
17:00 +44°C° 0 mm 3 mps 717 mmHg 14%
18:00 +42°C° 0 mm 3 mps 717 mmHg 17%
19:00 +40°C° 0 mm 4 mps 717 mmHg 20%
20:00 +37°C° 0 mm 4 mps 717 mmHg 24%
21:00 +36°C° 0 mm 3 mps 717 mmHg 25%
22:00 +35°C° 0 mm 3 mps 718 mmHg 27%
23:00 +34°C° 0 mm 2 mps 718 mmHg 28%

18 July, Saturday

Time Temperature Precipitation Wind Pressure Humidity
00:00 +34°C° 0 mm 3 mps 718 mmHg 29%
01:00 +34°C° 0 mm 4 mps 718 mmHg 30%
02:00 +34°C° 0 mm 5 mps 718 mmHg 31%
03:00 +33°C° 0 mm 5 mps 718 mmHg 34%
04:00 +33°C° 0 mm 4 mps 718 mmHg 37%
05:00 +32°C° 0 mm 4 mps 718 mmHg 40%
06:00 +33°C° 0 mm 5 mps 719 mmHg 39%
07:00 +34°C° 0 mm 5 mps 719 mmHg 39%
08:00 +35°C° 0 mm 6 mps 720 mmHg 38%
09:00 +36°C° 0 mm 6 mps 720 mmHg 34%
10:00 +39°C° 0 mm 6 mps 720 mmHg 30%
11:00 +41°C° 0 mm 7 mps 720 mmHg 26%
12:00 +42°C° 0 mm 6 mps 719 mmHg 24%
13:00 +42°C° 0 mm 5 mps 718 mmHg 21%
14:00 +43°C° 0 mm 5 mps 718 mmHg 19%
15:00 +43°C° 0 mm 4 mps 717 mmHg 19%
16:00 +43°C° 0 mm 3 mps 717 mmHg 18%
17:00 +42°C° 0 mm 2 mps 717 mmHg 17%
18:00 +42°C° 0 mm 3 mps 717 mmHg 20%
19:00 +39°C° 0 mm 3 mps 717 mmHg 22%
20:00 +37°C° 0 mm 3 mps 717 mmHg 25%
21:00 +37°C° 0.1 mm 3 mps 718 mmHg 26%
22:00 +36°C° 0.1 mm 3 mps 718 mmHg 28%
23:00 +35°C° 0.1 mm 3 mps 718 mmHg 29%

19 July, Sunday

Time Temperature Precipitation Wind Pressure Humidity
00:00 +35°C° 0 mm 4 mps 718 mmHg 33%
01:00 +34°C° 0 mm 5 mps 718 mmHg 36%
02:00 +33°C° 0 mm 5 mps 717 mmHg 40%
03:00 +33°C° 0 mm 5 mps 718 mmHg 42%
04:00 +33°C° 0 mm 5 mps 718 mmHg 44%
05:00 +32°C° 0 mm 4 mps 718 mmHg 45%
06:00 +33°C° 0 mm 6 mps 718 mmHg 45%
07:00 +34°C° 0 mm 8 mps 719 mmHg 44%
08:00 +34°C° 0 mm 10 mps 720 mmHg 43%
09:00 +37°C° 0 mm 10 mps 720 mmHg 38%
10:00 +38°C° 0 mm 9 mps 720 mmHg 33%
11:00 +40°C° 0 mm 9 mps 720 mmHg 28%
12:00 +41°C° 0 mm 8 mps 719 mmHg 26%
13:00 +42°C° 0 mm 6 mps 719 mmHg 23%
14:00 +42°C° 0 mm 5 mps 718 mmHg 21%
15:00 +42°C° 0 mm 6 mps 718 mmHg 22%
16:00 +42°C° 0 mm 6 mps 718 mmHg 22%
17:00 +41°C° 0 mm 6 mps 717 mmHg 23%
18:00 +40°C° 0.1 mm 6 mps 718 mmHg 26%
19:00 +38°C° 0.1 mm 6 mps 718 mmHg 30%
20:00 +36°C° 0.1 mm 6 mps 718 mmHg 33%
21:00 +36°C° 0 mm 6 mps 719 mmHg 34%
22:00 +35°C° 0 mm 5 mps 719 mmHg 35%
23:00 +35°C° 0 mm 5 mps 719 mmHg 37%
Show more